Location: Newark
(51.3318°N, 0.0053°E)
Time: 13:21:07
(UTC+00:00)

MOZHAYETS 4 - Pass Details

Date: 29 June 2022
Orbit: 660 x 679 km, 98.2° (Epoch: 12 August)

Event Time Altitude Azimuth Distance (km) Brightness Sun altitude
Exits shadow 01:32:08 - 145° (SE) 2,867 10.6 -12.9°
Reaches altitude 10° 01:34:03 10° 140° (SE) 2,112 10.0 -12.8°
Maximum altitude 01:38:26 45° 68° (ENE) 918 8.8 -12.6°
Drops below altitude 10° 01:42:51 10° 356° (N) 2,117 11.3 -12.3°
Sets 01:45:09 0° 350° (N) 3,033 12.1 -12.1°
